DW6282 League City TX US current weather conditions

sailwx.info

Wind from 324 at 3 knots gusting 10

Air temperature 22.8° C
Dewpoint 12.4° C

Last reported at 2019-Dec-06 19:47 UTC.
Time now 2019-Dec-06 20:20 UTC

Location: N 29°30' W 095°06'.
View on Google Maps.

See reports from other nearby stations

  
Tides and Currents Weather Stations Pressure Air Temp Water Temp Dewpoint Dewpoint Depression Visibility Wind Speed Wind Dir Waves Ship Positions
date/time (UTC)wind fromknots sea level pressurealtimeterstation pressurevisibilityair tempwater tempwave heightnotes
2019-Dec-06 19:47 324 3 gusting 10 22.8
2019-Dec-06 19:32 301 4 gusting 8 23.3
2019-Dec-06 19:16 324 2 gusting 12 23.3
2019-Dec-06 19:01 294 4 gusting 9 23.3
2019-Dec-06 18:47 251 3 gusting 11 23.3
2019-Dec-06 18:31 290 3 gusting 8 23.3
2019-Dec-06 18:17 270 3 gusting 6 23.3
2019-Dec-06 18:01 252 3 gusting 8 23.3
2019-Dec-06 17:46 292 3 gusting 6 23.3
2019-Dec-06 17:31 299 3 gusting 10 23.3
2019-Dec-06 17:17 271 3 gusting 6 23.3
2019-Dec-06 17:01 290 2 gusting 6 22.8
2019-Dec-06 16:46 274 2 gusting 7 22.8
2019-Dec-06 16:31 295 1 gusting 6 22.2
2019-Dec-06 16:15 264 2 gusting 8 21.7
2019-Dec-06 16:01 316 3 gusting 7 21.1
2019-Dec-06 15:45 271 4 gusting 10 20.6
2019-Dec-06 15:31 273 4 gusting 8 20.0
2019-Dec-06 15:16 310 2 gusting 6 19.4
2019-Dec-06 15:00 260 1 gusting 6 19.4
2019-Dec-06 14:45 288 2 gusting 6 19.4
2019-Dec-06 14:31 304 1 gusting 6 19.4
2019-Dec-06 13:15 123 17.2
2019-Dec-06 13:00 158 17.2
2019-Dec-06 12:45 272 17.2
2019-Dec-06 12:30 136 16.7
2019-Dec-06 11:45 135 16.7
2019-Dec-06 11:30 133 16.7
2019-Dec-06 11:16 132 16.7
2019-Dec-06 10:16 149 16.7
2019-Dec-06 10:00 149 16.1
2019-Dec-06 09:46 149 16.1
2019-Dec-06 09:15 149 16.7
2019-Dec-06 08:01 160 16.1
2019-Dec-06 07:45 160 16.7
2019-Dec-06 07:30 160 16.7
2019-Dec-06 06:31 205 16.1
2019-Dec-06 06:30 205 16.1
2019-Dec-06 06:01 205 16.1
2019-Dec-06 05:00 205 16.7
2019-Dec-06 04:46 205 17.2
2019-Dec-06 04:31 207 17.2
2019-Dec-06 04:16 214 17.8
2019-Dec-06 04:00 208 17.8
2019-Dec-06 03:45 207 17.8
2019-Dec-06 03:30 205 17.8
2019-Dec-06 03:15 205 17.8
2019-Dec-06 03:00 153 17.8
2019-Dec-06 02:45 181 17.8
2019-Dec-06 02:30 205 17.8
2019-Dec-06 02:15 242 17.8
2019-Dec-06 02:00 260 17.2
2019-Dec-06 01:45 210 17.8
2019-Dec-06 01:30 212 17.8
2019-Dec-06 01:16 176 17.2
2019-Dec-06 01:00 176 17.8
2019-Dec-06 00:45 176 17.8
2019-Dec-06 00:30 209 18.3
2019-Dec-06 00:15 196 18.3
2019-Dec-06 00:00 216 18.9
2019-Dec-05 23:45 217 18.9
2019-Dec-05 23:30 202 19.4
2019-Dec-05 23:15 134 19.4
2019-Dec-05 23:00 197 20.0
2019-Dec-05 22:45 226 0 gusting 2 20.6
2019-Dec-05 22:30 201 0 gusting 4 20.6
2019-Dec-05 22:15 213 0 gusting 4 21.1
2019-Dec-05 22:00 181 21.7
2019-Dec-05 21:45 119 2 gusting 5 21.7
2019-Dec-05 21:30 207 21.7
2019-Dec-05 21:15 167 2 gusting 6 21.7
2019-Dec-05 21:00 182 2 gusting 6 22.2
2019-Dec-05 20:45 191 2 gusting 6 22.2
2019-Dec-05 20:30 202 3 gusting 8 22.8
2019-Dec-05 20:15 205 3 gusting 7 22.8
2019-Dec-05 20:02 153 2 gusting 6 23.3
2019-Dec-05 19:47 120 1 gusting 6 23.9
2019-Dec-05 19:31 155 1 gusting 5 23.3
2019-Dec-05 19:16 147 1 gusting 6 23.3
2019-Dec-05 19:01 195 0 gusting 6 23.9
2019-Dec-05 18:46 197 1 gusting 6 23.3
2019-Dec-05 18:32 158 2 gusting 6 23.9
2019-Dec-05 18:17 137 2 gusting 6 23.9
2019-Dec-05 18:01 207 0 gusting 5 23.3
2019-Dec-05 17:46 158 2 gusting 5 23.9
2019-Dec-05 17:31 188 0 gusting 5 24.4
2019-Dec-05 17:16 126 0 gusting 4 23.3
2019-Dec-05 17:01 225 0 gusting 5 23.3
2019-Dec-05 16:46 210 22.8
2019-Dec-05 16:31 134 0 gusting 2 22.2
2019-Dec-05 16:15 129 21.7
2019-Dec-05 16:01 262 21.1
2019-Dec-05 15:45 072 20.6
2019-Dec-05 15:30 066 19.4
2019-Dec-05 15:15 117 17.8
2019-Dec-05 15:00 104 16.7
2019-Dec-05 14:45 091 16.1
2019-Dec-05 14:30 057 14.4
2019-Dec-05 14:15 056 13.9
2019-Dec-05 14:00 055 13.3
2019-Dec-05 13:47 055 12.2
2019-Dec-05 13:33 055 12.2
2019-Dec-05 13:17 055 11.7
2019-Dec-05 13:02 055 10.6
2019-Dec-05 12:46 055 11.1
2019-Dec-05 12:32 055 10.6
2019-Dec-05 12:16 055 10.6
2019-Dec-05 12:01 055 10.6
2019-Dec-05 11:46 055 10.0
2019-Dec-05 11:30 055 10.0
2019-Dec-05 11:15 055 10.0
2019-Dec-05 11:01 055 10.0
2019-Dec-05 10:45 055 10.0
2019-Dec-05 10:31 055 10.6
2019-Dec-05 10:16 055 10.0
2019-Dec-05 10:01 054 10.0
2019-Dec-05 09:46 054 10.6
2019-Dec-05 09:31 055 10.0
2019-Dec-05 09:15 055 10.0
2019-Dec-05 09:00 055 9.4
2019-Dec-05 08:46 055 9.4
2019-Dec-05 08:30 055 9.4
2019-Dec-05 08:15 055 9.4
2019-Dec-05 07:30 055 9.4
2019-Dec-05 07:00 055 9.4
2019-Dec-05 06:31 055 9.4
2019-Dec-05 06:16 055 9.4
2019-Dec-05 06:03 055 10.0
2019-Dec-05 05:46 055 10.0
2019-Dec-05 05:31 055 10.6
2019-Dec-05 05:16 055 11.1
2019-Dec-05 05:01 055 11.7
2019-Dec-05 04:46 055 11.7
2019-Dec-05 04:32 055 11.7
2019-Dec-05 04:16 055 12.2
2019-Dec-05 04:02 055 12.2
2019-Dec-05 03:46 055 12.2
2019-Dec-05 03:31 055 12.2
2019-Dec-05 03:16 055 12.2
2019-Dec-05 03:01 055 12.8
2019-Dec-05 02:46 055 12.2
2019-Dec-05 02:31 055 12.2
2019-Dec-05 02:16 055 12.8
2019-Dec-05 02:01 055 12.8
2019-Dec-05 01:46 055 13.3
2019-Dec-05 01:31 055 13.9
2019-Dec-05 01:16 055 13.9
2019-Dec-05 01:01 055 14.4
2019-Dec-05 00:46 055 15.0
2019-Dec-05 00:30 055 15.6
2019-Dec-05 00:17 055 16.7
2019-Dec-05 00:00 055 16.7
2019-Dec-04 23:45 055 17.2
2019-Dec-04 23:30 055 17.8
2019-Dec-04 23:16 055 18.9
2019-Dec-04 23:01 055 19.4
2019-Dec-04 22:45 052 20.0
2019-Dec-04 22:30 039 20.6
2019-Dec-04 22:16 105 21.1
2019-Dec-04 22:01 110 21.1
2019-Dec-04 21:45 110 21.7
2019-Dec-04 21:30 122 21.7
2019-Dec-04 21:16 013 1 gusting 5 21.7
2019-Dec-04 21:00 004 2 gusting 5 21.7
2019-Dec-04 20:45 307 1 gusting 6 22.2
2019-Dec-04 20:31 352 2 gusting 6 22.2
2019-Dec-04 20:15 006 2 gusting 10 22.2
2019-Dec-04 20:00 333 2 gusting 6 22.2